Location: Unspecified
(48.5539°N, 71.6350°W)
Time: 20:58:35
(UTC-05:00)

ISS - Pass Details

Date: 23 January 2019
Orbit: 403 x 411 km, 51.6° (Epoch: 17 February)

Event Time Altitude Azimuth Distance (km) Brightness Sun altitude
Rises 18:45:06 0° 228° (SW) 2,326 0.9 -22.0°
Reaches altitude 10° 18:47:14 10° 222° (SW) 1,470 -0.4 -22.3°
Enters shadow 18:49:06 28° 202° (SSW) 801 -2.1 -22.6°
Maximum altitude 18:50:23 44° 149° (SSE) 582 - -22.9°
Drops below altitude 10° 18:53:33 10° 76° (ENE) 1,476 - -23.4°
Sets 18:55:43 0° 69° (ENE) 2,348 - -23.7°
